owner,sensor,date,latitude,longitude,vertical_datum,mass_concentration_of_oxygen_in_sea_water,qcFlag 
SCCF RECON,ioos:station:SCCF:56:1,2015-12-01T00:00:00Z,26.4645,-82.1044,1.95,7.66,1111122 
SCCF RECON,ioos:station:SCCF:56:1,2015-12-01T01:00:00Z,26.4645,-82.1044,1.9,7.48,1111122 
SCCF RECON,ioos:station:SCCF:56:1,2015-12-01T02:00:00Z,26.4645,-82.1044,1.86,7.38,1111122 
SCCF RECON,ioos:station:SCCF:56:1,2015-12-01T03:00:00Z,26.4645,-82.1044,1.87,7.33,1111122 
SCCF RECON,ioos:station:SCCF:56:1,2015-12-01T04:00:00Z,26.4645,-82.1044,1.89,7.32,1111122 
SCCF RECON,ioos:station:SCCF:56:1,2015-12-01T05:00:00Z,26.4645,-82.1044,1.94,6.15,1111122 
SCCF RECON,ioos:station:SCCF:56:1,2015-12-01T06:00:00Z,26.4645,-82.1044,1.98,6.05,1111122 
SCCF RECON,ioos:station:SCCF:56:1,2015-12-01T07:00:00Z,26.4645,-82.1044,2.03,5.75,1111122 
SCCF RECON,ioos:station:SCCF:56:1,2015-12-01T08:00:00Z,26.4645,-82.1044,2.08,5.85,1111122 
SCCF RECON,ioos:station:SCCF:56:1,2015-12-01T09:00:00Z,26.4645,-82.1044,2.06,6.65,1111122 
SCCF RECON,ioos:station:SCCF:56:1,2015-12-01T10:00:00Z,26.4645,-82.1044,2.02,6.2,1111122 
SCCF RECON,ioos:station:SCCF:56:1,2015-12-01T11:00:00Z,26.4645,-82.1044,1.959,5.94,1111122 
SCCF RECON,ioos:station:SCCF:56:1,2015-12-01T12:00:00Z,26.4645,-82.1044,1.88,5.58,1111122 
SCCF RECON,ioos:station:SCCF:56:1,2015-12-01T13:00:00Z,26.4645,-82.1044,1.78,5.18,1111122 
SCCF RECON,ioos:station:SCCF:56:1,2015-12-01T14:00:00Z,26.4645,-82.1044,1.67,4.79,1111122 
SCCF RECON,ioos:station:SCCF:56:1,2015-12-01T15:00:00Z,26.4645,-82.1044,1.57,4.57,1111122 
SCCF RECON,ioos:station:SCCF:56:1,2015-12-01T16:00:00Z,26.4645,-82.1044,1.5,4.61,1111122 
SCCF RECON,ioos:station:SCCF:56:1,2015-12-01T17:00:00Z,26.4645,-82.1044,1.48,4.59,1111122 
SCCF RECON,ioos:station:SCCF:56:1,2015-12-01T18:00:00Z,26.4645,-82.1044,1.57,7.2,1111122 
SCCF RECON,ioos:station:SCCF:56:1,2015-12-01T19:00:00Z,26.4645,-82.1044,1.72,9.42,1111122 
SCCF RECON,ioos:station:SCCF:56:1,2015-12-01T20:00:00Z,26.4645,-82.1044,1.83,8.88,1111122 
SCCF RECON,ioos:station:SCCF:56:1,2015-12-01T21:00:00Z,26.4645,-82.1044,1.91,8.21,1111122 
SCCF RECON,ioos:station:SCCF:56:1,2015-12-01T22:00:00Z,26.4645,-82.1044,1.958,8.06,1111122 
SCCF RECON,ioos:station:SCCF:56:1,2015-12-01T23:00:00Z,26.4645,-82.1044,1.98,7.77,1111122 
SCCF RECON,ioos:station:SCCF:56:1,2015-12-02T00:00:00Z,26.4645,-82.1044,1.97,7.45,1111122 
SCCF RECON,ioos:station:SCCF:56:1,2015-12-02T01:00:00Z,26.4645,-82.1044,1.93,7.75,1111122 
SCCF RECON,ioos:station:SCCF:56:1,2015-12-02T02:00:00Z,26.4645,-82.1044,1.88,7.48,1111122 
SCCF RECON,ioos:station:SCCF:56:1,2015-12-02T03:00:00Z,26.4645,-82.1044,1.85,7.09,1111122 
SCCF RECON,ioos:station:SCCF:56:1,2015-12-02T04:00:00Z,26.4645,-82.1044,1.83,6.68,1111122 
SCCF RECON,ioos:station:SCCF:56:1,2015-12-02T05:00:00Z,26.4645,-82.1044,1.85,6.58,1111122 
SCCF RECON,ioos:station:SCCF:56:1,2015-12-02T06:00:00Z,26.4645,-82.1044,1.87,6.26,1111122 
SCCF RECON,ioos:station:SCCF:56:1,2015-12-02T07:00:00Z,26.4645,-82.1044,1.9,5.83,1111122 
SCCF RECON,ioos:station:SCCF:56:1,2015-12-02T08:00:00Z,26.4645,-82.1044,1.95,5.62,1111122 
SCCF RECON,ioos:station:SCCF:56:1,2015-12-02T09:00:00Z,26.4645,-82.1044,1.99,5.87,1111122 
SCCF RECON,ioos:station:SCCF:56:1,2015-12-02T10:00:00Z,26.4645,-82.1044,1.99,5.64,1111122 
SCCF RECON,ioos:station:SCCF:56:1,2015-12-02T11:00:00Z,26.4645,-82.1044,1.966,5.64,1111122 
SCCF RECON,ioos:station:SCCF:56:1,2015-12-02T12:00:00Z,26.4645,-82.1044,1.92,5.2,1111122 
SCCF RECON,ioos:station:SCCF:56:1,2015-12-02T13:00:00Z,26.4645,-82.1044,1.85,4.91,1111122 
SCCF RECON,ioos:station:SCCF:56:1,2015-12-02T14:00:00Z,26.4645,-82.1044,1.765,4.85,1111122 
SCCF RECON,ioos:station:SCCF:56:1,2015-12-02T15:00:00Z,26.4645,-82.1044,1.672,4.58,1111122 
SCCF RECON,ioos:station:SCCF:56:1,2015-12-02T16:00:00Z,26.4645,-82.1044,1.593,4.49,1111122 
SCCF RECON,ioos:station:SCCF:56:1,2015-12-02T17:00:00Z,26.4645,-82.1044,1.542,4.59,1111122 
SCCF RECON,ioos:station:SCCF:56:1,2015-12-02T18:00:00Z,26.4645,-82.1044,1.55,4.98,1111122 
SCCF RECON,ioos:station:SCCF:56:1,2015-12-02T19:00:00Z,26.4645,-82.1044,1.652,8.9,1111122 
SCCF RECON,ioos:station:SCCF:56:1,2015-12-02T20:00:00Z,26.4645,-82.1044,1.79,8.69,1111122 
SCCF RECON,ioos:station:SCCF:56:1,2015-12-02T21:00:00Z,26.4645,-82.1044,1.88,8.25,1111122 
SCCF RECON,ioos:station:SCCF:56:1,2015-12-02T22:00:00Z,26.4645,-82.1044,1.941,7.51,1111122 
SCCF RECON,ioos:station:SCCF:56:1,2015-12-02T23:00:00Z,26.4645,-82.1044,1.977,7.21,1111122 
SCCF RECON,ioos:station:SCCF:56:1,2015-12-03T00:00:00Z,26.4645,-82.1044,1.99,6.97,1111122 
SCCF RECON,ioos:station:SCCF:56:1,2015-12-03T01:00:00Z,26.4645,-82.1044,1.97,6.76,1111122 
SCCF RECON,ioos:station:SCCF:56:1,2015-12-03T02:00:00Z,26.4645,-82.1044,1.91,7.15,1111122 
SCCF RECON,ioos:station:SCCF:56:1,2015-12-03T03:00:00Z,26.4645,-82.1044,1.87,6.7,1111122 
SCCF RECON,ioos:station:SCCF:56:1,2015-12-03T04:00:00Z,26.4645,-82.1044,1.824,6.74,1111122 
SCCF RECON,ioos:station:SCCF:56:1,2015-12-03T05:00:00Z,26.4645,-82.1044,1.76,6.01,1111122 
SCCF RECON,ioos:station:SCCF:56:1,2015-12-03T06:00:00Z,26.4645,-82.1044,1.72,5.67,1111122 
SCCF RECON,ioos:station:SCCF:56:1,2015-12-03T07:00:00Z,26.4645,-82.1044,1.7,5.35,1111122 
SCCF RECON,ioos:station:SCCF:56:1,2015-12-03T08:00:00Z,26.4645,-82.1044,1.746,5.32,1111122 
SCCF RECON,ioos:station:SCCF:56:1,2015-12-03T09:00:00Z,26.4645,-82.1044,1.85,4.5,1111122 
SCCF RECON,ioos:station:SCCF:56:1,2015-12-03T10:00:00Z,26.4645,-82.1044,1.91,4.84,1111122 
SCCF RECON,ioos:station:SCCF:56:1,2015-12-03T11:00:00Z,26.4645,-82.1044,1.91,5.76,1111122 
SCCF RECON,ioos:station:SCCF:56:1,2015-12-03T12:00:00Z,26.4645,-82.1044,1.92,5.51,1111122 
SCCF RECON,ioos:station:SCCF:56:1,2015-12-03T13:00:00Z,26.4645,-82.1044,1.92,5.4,1111122 
SCCF RECON,ioos:station:SCCF:56:1,2015-12-03T14:00:00Z,26.4645,-82.1044,1.84,4.64,1111122 
SCCF RECON,ioos:station:SCCF:56:1,2015-12-03T15:00:00Z,26.4645,-82.1044,1.75,4.16,1111122 
SCCF RECON,ioos:station:SCCF:56:1,2015-12-03T16:00:00Z,26.4645,-82.1044,1.68,4.02,1111122 
SCCF RECON,ioos:station:SCCF:56:1,2015-12-03T17:00:00Z,26.4645,-82.1044,1.62,3.56,1111122 
SCCF RECON,ioos:station:SCCF:56:1,2015-12-03T18:00:00Z,26.4645,-82.1044,1.56,3.26,1111122 
SCCF RECON,ioos:station:SCCF:56:1,2015-12-03T19:00:00Z,26.4645,-82.1044,1.61,4.05,1111122 
SCCF RECON,ioos:station:SCCF:56:1,2015-12-03T20:00:00Z,26.4645,-82.1044,1.72,6.03,1111122 
SCCF RECON,ioos:station:SCCF:56:1,2015-12-03T21:00:00Z,26.4645,-82.1044,1.83,6.48,1111122 
SCCF RECON,ioos:station:SCCF:56:1,2015-12-03T22:00:00Z,26.4645,-82.1044,1.92,6.14,1111122 
SCCF RECON,ioos:station:SCCF:56:1,2015-12-03T23:00:00Z,26.4645,-82.1044,1.97,6.27,1111122 
SCCF RECON,ioos:station:SCCF:56:1,2015-12-04T00:00:00Z,26.4645,-82.1044,2.0,6.15,1111122 
SCCF RECON,ioos:station:SCCF:56:1,2015-12-04T01:00:00Z,26.4645,-82.1044,1.98,6.4,1111122 
SCCF RECON,ioos:station:SCCF:56:1,2015-12-04T02:00:00Z,26.4645,-82.1044,1.969,5.95,1111122 
SCCF RECON,ioos:station:SCCF:56:1,2015-12-04T03:00:00Z,26.4645,-82.1044,1.88,6.0,1111122 
SCCF RECON,ioos:station:SCCF:56:1,2015-12-04T04:00:00Z,26.4645,-82.1044,1.8,5.5,1111122 
SCCF RECON,ioos:station:SCCF:56:1,2015-12-04T05:00:00Z,26.4645,-82.1044,1.741,5.17,1111122 
SCCF RECON,ioos:station:SCCF:56:1,2015-12-04T06:00:00Z,26.4645,-82.1044,1.665,4.62,1111122 
SCCF RECON,ioos:station:SCCF:56:1,2015-12-04T07:00:00Z,26.4645,-82.1044,1.56,4.81,1111122 
SCCF RECON,ioos:station:SCCF:56:1,2015-12-04T08:00:00Z,26.4645,-82.1044,1.48,4.81,1111122 
SCCF RECON,ioos:station:SCCF:56:1,2015-12-04T09:00:00Z,26.4645,-82.1044,1.54,5.01,1111122 
SCCF RECON,ioos:station:SCCF:56:1,2015-12-04T10:00:00Z,26.4645,-82.1044,1.632,5.73,1111122 
SCCF RECON,ioos:station:SCCF:56:1,2015-12-04T11:00:00Z,26.4645,-82.1044,1.72,6.13,1111122 
SCCF RECON,ioos:station:SCCF:56:1,2015-12-04T12:00:00Z,26.4645,-82.1044,1.73,5.99,1111122 
SCCF RECON,ioos:station:SCCF:56:1,2015-12-04T13:00:00Z,26.4645,-82.1044,1.759,5.86,1111122 
SCCF RECON,ioos:station:SCCF:56:1,2015-12-04T14:00:00Z,26.4645,-82.1044,1.731,5.66,1111122 
SCCF RECON,ioos:station:SCCF:56:1,2015-12-04T15:00:00Z,26.4645,-82.1044,1.7,5.54,1111122 
SCCF RECON,ioos:station:SCCF:56:1,2015-12-04T16:00:00Z,26.4645,-82.1044,1.672,5.45,1111122 
SCCF RECON,ioos:station:SCCF:56:1,2015-12-04T17:00:00Z,26.4645,-82.1044,1.62,5.38,1111122 
SCCF RECON,ioos:station:SCCF:56:1,2015-12-04T18:00:00Z,26.4645,-82.1044,1.582,5.56,1111122 
SCCF RECON,ioos:station:SCCF:56:1,2015-12-04T19:00:00Z,26.4645,-82.1044,1.55,5.27,1111122 
SCCF RECON,ioos:station:SCCF:56:1,2015-12-04T20:00:00Z,26.4645,-82.1044,1.584,6.11,1111122 
SCCF RECON,ioos:station:SCCF:56:1,2015-12-04T21:00:00Z,26.4645,-82.1044,1.686,7.17,1111122 
SCCF RECON,ioos:station:SCCF:56:1,2015-12-04T22:00:00Z,26.4645,-82.1044,1.82,7.15,1111122 
SCCF RECON,ioos:station:SCCF:56:1,2015-12-04T23:00:00Z,26.4645,-82.1044,1.89,6.78,1111122 
SCCF RECON,ioos:station:SCCF:56:1,2015-12-05T00:00:00Z,26.4645,-82.1044,1.91,6.61,1111122 
SCCF RECON,ioos:station:SCCF:56:1,2015-12-05T01:00:00Z,26.4645,-82.1044,1.941,6.35,1111122 
SCCF RECON,ioos:station:SCCF:56:1,2015-12-05T02:00:00Z,26.4645,-82.1044,1.941,6.31,1111122 
SCCF RECON,ioos:station:SCCF:56:1,2015-12-05T03:00:00Z,26.4645,-82.1044,1.9,6.46,1111122 
SCCF RECON,ioos:station:SCCF:56:1,2015-12-05T04:00:00Z,26.4645,-82.1044,1.81,6.31,1111122 
SCCF RECON,ioos:station:SCCF:56:1,2015-12-05T05:00:00Z,26.4645,-82.1044,1.69,5.77,1111122 
SCCF RECON,ioos:station:SCCF:56:1,2015-12-05T06:00:00Z,26.4645,-82.1044,1.62,5.28,1111122 
SCCF RECON,ioos:station:SCCF:56:1,2015-12-05T07:00:00Z,26.4645,-82.1044,1.548,4.95,1111122 
SCCF RECON,ioos:station:SCCF:56:1,2015-12-05T08:00:00Z,26.4645,-82.1044,1.48,4.67,1111122 
SCCF RECON,ioos:station:SCCF:56:1,2015-12-05T09:00:00Z,26.4645,-82.1044,1.47,4.56,1111122 
SCCF RECON,ioos:station:SCCF:56:1,2015-12-05T10:00:00Z,26.4645,-82.1044,1.511,4.8,1111122 
SCCF RECON,ioos:station:SCCF:56:1,2015-12-05T11:00:00Z,26.4645,-82.1044,1.6,5.64,1111122 
SCCF RECON,ioos:station:SCCF:56:1,2015-12-05T12:00:00Z,26.4645,-82.1044,1.683,6.41,1111122 
SCCF RECON,ioos:station:SCCF:56:1,2015-12-05T13:00:00Z,26.4645,-82.1044,1.722,6.33,1111122 
SCCF RECON,ioos:station:SCCF:56:1,2015-12-05T14:00:00Z,26.4645,-82.1044,1.77,6.57,1111122 
SCCF RECON,ioos:station:SCCF:56:1,2015-12-05T15:00:00Z,26.4645,-82.1044,1.77,6.55,1111122 
SCCF RECON,ioos:station:SCCF:56:1,2015-12-05T16:00:00Z,26.4645,-82.1044,1.72,6.34,1111122 
SCCF RECON,ioos:station:SCCF:56:1,2015-12-05T17:00:00Z,26.4645,-82.1044,1.63,6.05,1111122 
SCCF RECON,ioos:station:SCCF:56:1,2015-12-05T18:00:00Z,26.4645,-82.1044,1.543,6.14,1111122 
SCCF RECON,ioos:station:SCCF:56:1,2015-12-05T19:00:00Z,26.4645,-82.1044,1.49,6.19,1111122 
SCCF RECON,ioos:station:SCCF:56:1,2015-12-05T20:00:00Z,26.4645,-82.1044,1.495,6.26,1111122 
SCCF RECON,ioos:station:SCCF:56:1,2015-12-05T21:00:00Z,26.4645,-82.1044,1.58,8.27,1111122 
SCCF RECON,ioos:station:SCCF:56:1,2015-12-05T22:00:00Z,26.4645,-82.1044,1.69,8.31,1111122 
SCCF RECON,ioos:station:SCCF:56:1,2015-12-05T23:00:00Z,26.4645,-82.1044,1.796,7.64,1111122 
SCCF RECON,ioos:station:SCCF:56:1,2015-12-06T00:00:00Z,26.4645,-82.1044,1.89,7.12,1111122 
SCCF RECON,ioos:station:SCCF:56:1,2015-12-06T01:00:00Z,26.4645,-82.1044,1.951,6.9,1111122 
SCCF RECON,ioos:station:SCCF:56:1,2015-12-06T02:00:00Z,26.4645,-82.1044,1.966,6.89,1111122 
SCCF RECON,ioos:station:SCCF:56:1,2015-12-06T03:00:00Z,26.4645,-82.1044,1.935,7.08,1111122 
SCCF RECON,ioos:station:SCCF:56:1,2015-12-06T04:00:00Z,26.4645,-82.1044,1.88,6.7,1111122 
SCCF RECON,ioos:station:SCCF:56:1,2015-12-06T05:00:00Z,26.4645,-82.1044,1.81,6.32,1111122 
SCCF RECON,ioos:station:SCCF:56:1,2015-12-06T06:00:00Z,26.4645,-82.1044,1.705,6.45,1111122 
SCCF RECON,ioos:station:SCCF:56:1,2015-12-06T07:00:00Z,26.4645,-82.1044,1.611,5.75,1111122 
SCCF RECON,ioos:station:SCCF:56:1,2015-12-06T08:00:00Z,26.4645,-82.1044,1.54,5.61,1111122 
SCCF RECON,ioos:station:SCCF:56:1,2015-12-06T09:00:00Z,26.4645,-82.1044,1.48,5.26,1111122 
SCCF RECON,ioos:station:SCCF:56:1,2015-12-06T10:00:00Z,26.4645,-82.1044,1.462,5.06,1111122 
SCCF RECON,ioos:station:SCCF:56:1,2015-12-06T11:00:00Z,26.4645,-82.1044,1.539,5.29,1111122 
SCCF RECON,ioos:station:SCCF:56:1,2015-12-06T12:00:00Z,26.4645,-82.1044,1.64,5.26,1111122 
SCCF RECON,ioos:station:SCCF:56:1,2015-12-06T13:00:00Z,26.4645,-82.1044,1.7,5.91,1111122 
SCCF RECON,ioos:station:SCCF:56:1,2015-12-06T14:00:00Z,26.4645,-82.1044,1.75,6.11,1111122 
SCCF RECON,ioos:station:SCCF:56:1,2015-12-06T15:00:00Z,26.4645,-82.1044,1.805,6.83,1111122 
SCCF RECON,ioos:station:SCCF:56:1,2015-12-06T16:00:00Z,26.4645,-82.1044,1.813,7.83,1111122 
SCCF RECON,ioos:station:SCCF:56:1,2015-12-06T17:00:00Z,26.4645,-82.1044,1.805,8.1,1111122 
SCCF RECON,ioos:station:SCCF:56:1,2015-12-06T18:00:00Z,26.4645,-82.1044,1.732,7.97,1111122 
SCCF RECON,ioos:station:SCCF:56:1,2015-12-06T19:00:00Z,26.4645,-82.1044,1.66,7.35,1111122 
SCCF RECON,ioos:station:SCCF:56:1,2015-12-06T20:00:00Z,26.4645,-82.1044,1.64,7.31,1111122 
SCCF RECON,ioos:station:SCCF:56:1,2015-12-06T21:00:00Z,26.4645,-82.1044,1.67,8.81,1111122 
SCCF RECON,ioos:station:SCCF:56:1,2015-12-06T22:00:00Z,26.4645,-82.1044,1.74,8.42,1111122 
SCCF RECON,ioos:station:SCCF:56:1,2015-12-06T23:00:00Z,26.4645,-82.1044,1.788,7.75,1111122 
SCCF RECON,ioos:station:SCCF:56:1,2015-12-07T00:00:00Z,26.4645,-82.1044,1.88,7.42,1111122 
SCCF RECON,ioos:station:SCCF:56:1,2015-12-07T01:00:00Z,26.4645,-82.1044,1.929,7.24,1111122 
SCCF RECON,ioos:station:SCCF:56:1,2015-12-07T02:00:00Z,26.4645,-82.1044,1.98,7.12,1111122 
SCCF RECON,ioos:station:SCCF:56:1,2015-12-07T03:00:00Z,26.4645,-82.1044,1.99,7.04,1111122 
SCCF RECON,ioos:station:SCCF:56:1,2015-12-07T04:00:00Z,26.4645,-82.1044,1.943,6.77,1111122 
SCCF RECON,ioos:station:SCCF:56:1,2015-12-07T05:00:00Z,26.4645,-82.1044,1.841,6.78,1111122 
SCCF RECON,ioos:station:SCCF:56:1,2015-12-07T06:00:00Z,26.4645,-82.1044,1.72,6.14,1111122 
SCCF RECON,ioos:station:SCCF:56:1,2015-12-07T07:00:00Z,26.4645,-82.1044,1.61,5.76,1111122 
SCCF RECON,ioos:station:SCCF:56:1,2015-12-07T08:00:00Z,26.4645,-82.1044,1.513,5.29,1111122 
SCCF RECON,ioos:station:SCCF:56:1,2015-12-07T09:00:00Z,26.4645,-82.1044,1.437,4.95,1111122 
SCCF RECON,ioos:station:SCCF:56:1,2015-12-07T10:00:00Z,26.4645,-82.1044,1.41,4.66,1111122 
SCCF RECON,ioos:station:SCCF:56:1,2015-12-07T11:00:00Z,26.4645,-82.1044,1.48,4.71,1111122 
SCCF RECON,ioos:station:SCCF:56:1,2015-12-07T12:00:00Z,26.4645,-82.1044,1.6,6.07,1111122 
SCCF RECON,ioos:station:SCCF:56:1,2015-12-07T13:00:00Z,26.4645,-82.1044,1.72,5.78,1111122 
SCCF RECON,ioos:station:SCCF:56:1,2015-12-07T14:00:00Z,26.4645,-82.1044,1.807,5.86,1111122 
SCCF RECON,ioos:station:SCCF:56:1,2015-12-07T15:00:00Z,26.4645,-82.1044,1.867,6.97,1111122 
SCCF RECON,ioos:station:SCCF:56:1,2015-12-07T16:00:00Z,26.4645,-82.1044,1.89,7.42,1111122 
SCCF RECON,ioos:station:SCCF:56:1,2015-12-07T17:00:00Z,26.4645,-82.1044,1.89,7.74,1111122 
SCCF RECON,ioos:station:SCCF:56:1,2015-12-07T18:00:00Z,26.4645,-82.1044,1.822,7.29,1111122 
SCCF RECON,ioos:station:SCCF:56:1,2015-12-07T19:00:00Z,26.4645,-82.1044,1.73,6.78,1111122 
SCCF RECON,ioos:station:SCCF:56:1,2015-12-07T20:00:00Z,26.4645,-82.1044,1.68,6.71,1111122 
SCCF RECON,ioos:station:SCCF:56:1,2015-12-07T21:00:00Z,26.4645,-82.1044,1.64,6.67,1111122 
SCCF RECON,ioos:station:SCCF:56:1,2015-12-07T22:00:00Z,26.4645,-82.1044,1.64,7.2,1111122 
SCCF RECON,ioos:station:SCCF:56:1,2015-12-07T23:00:00Z,26.4645,-82.1044,1.72,10.48,1111122 
SCCF RECON,ioos:station:SCCF:56:1,2015-12-08T00:00:00Z,26.4645,-82.1044,1.84,9.38,1111122 
SCCF RECON,ioos:station:SCCF:56:1,2015-12-08T01:00:00Z,26.4645,-82.1044,1.92,8.14,1111122 
SCCF RECON,ioos:station:SCCF:56:1,2015-12-08T02:00:00Z,26.4645,-82.1044,1.936,7.74,1111122 
SCCF RECON,ioos:station:SCCF:56:1,2015-12-08T03:00:00Z,26.4645,-82.1044,1.97,7.63,1111122 
SCCF RECON,ioos:station:SCCF:56:1,2015-12-08T04:00:00Z,26.4645,-82.1044,1.976,7.3,1111122 
SCCF RECON,ioos:station:SCCF:56:1,2015-12-08T05:00:00Z,26.4645,-82.1044,1.905,7.2,1111122 
SCCF RECON,ioos:station:SCCF:56:1,2015-12-08T06:00:00Z,26.4645,-82.1044,1.779,6.73,1111122 
SCCF RECON,ioos:station:SCCF:56:1,2015-12-08T07:00:00Z,26.4645,-82.1044,1.632,6.14,1111122 
SCCF RECON,ioos:station:SCCF:56:1,2015-12-08T08:00:00Z,26.4645,-82.1044,1.526,5.67,1111122 
SCCF RECON,ioos:station:SCCF:56:1,2015-12-08T09:00:00Z,26.4645,-82.1044,1.424,5.27,1111122 
SCCF RECON,ioos:station:SCCF:56:1,2015-12-08T10:00:00Z,26.4645,-82.1044,1.33,4.9,1111122 
SCCF RECON,ioos:station:SCCF:56:1,2015-12-08T11:00:00Z,26.4645,-82.1044,1.285,4.69,1111122 
SCCF RECON,ioos:station:SCCF:56:1,2015-12-08T12:00:00Z,26.4645,-82.1044,1.36,4.8,1111122 
SCCF RECON,ioos:station:SCCF:56:1,2015-12-08T13:00:00Z,26.4645,-82.1044,1.509,6.48,1111122 
SCCF RECON,ioos:station:SCCF:56:1,2015-12-08T14:00:00Z,26.4645,-82.1044,1.631,7.06,1111122 
SCCF RECON,ioos:station:SCCF:56:1,2015-12-08T15:00:00Z,26.4645,-82.1044,1.73,7.59,1111122 
SCCF RECON,ioos:station:SCCF:56:1,2015-12-08T16:00:00Z,26.4645,-82.1044,1.8,8.12,1111122 
SCCF RECON,ioos:station:SCCF:56:1,2015-12-08T17:00:00Z,26.4645,-82.1044,1.83,8.95,1111122 
SCCF RECON,ioos:station:SCCF:56:1,2015-12-08T18:00:00Z,26.4645,-82.1044,1.82,8.74,1111122 
SCCF RECON,ioos:station:SCCF:56:1,2015-12-08T19:00:00Z,26.4645,-82.1044,1.741,8.09,1111122 
SCCF RECON,ioos:station:SCCF:56:1,2015-12-08T20:00:00Z,26.4645,-82.1044,1.659,8.15,1111122 
SCCF RECON,ioos:station:SCCF:56:1,2015-12-08T21:00:00Z,26.4645,-82.1044,1.622,8.11,1111122 
SCCF RECON,ioos:station:SCCF:56:1,2015-12-08T22:00:00Z,26.4645,-82.1044,1.65,8.65,1111122 
SCCF RECON,ioos:station:SCCF:56:1,2015-12-08T23:00:00Z,26.4645,-82.1044,1.72,8.65,1111122 
SCCF RECON,ioos:station:SCCF:56:1,2015-12-09T00:00:00Z,26.4645,-82.1044,1.83,9.09,1111122 
SCCF RECON,ioos:station:SCCF:56:1,2015-12-09T01:00:00Z,26.4645,-82.1044,1.93,8.51,1111122 
SCCF RECON,ioos:station:SCCF:56:1,2015-12-09T02:00:00Z,26.4645,-82.1044,2.0,7.8,1111122 
SCCF RECON,ioos:station:SCCF:56:1,2015-12-09T03:00:00Z,26.4645,-82.1044,2.056,7.52,1111122 
SCCF RECON,ioos:station:SCCF:56:1,2015-12-09T04:00:00Z,26.4645,-82.1044,2.083,7.4,1111122 
SCCF RECON,ioos:station:SCCF:56:1,2015-12-09T05:00:00Z,26.4645,-82.1044,2.049,7.52,1111122 
SCCF RECON,ioos:station:SCCF:56:1,2015-12-09T06:00:00Z,26.4645,-82.1044,1.934,7.01,1111122 
SCCF RECON,ioos:station:SCCF:56:1,2015-12-09T07:00:00Z,26.4645,-82.1044,1.794,6.77,1111122 
SCCF RECON,ioos:station:SCCF:56:1,2015-12-09T08:00:00Z,26.4645,-82.1044,1.66,6.32,1111122 
SCCF RECON,ioos:station:SCCF:56:1,2015-12-09T09:00:00Z,26.4645,-82.1044,1.549,5.97,1111122 
SCCF RECON,ioos:station:SCCF:56:1,2015-12-09T10:00:00Z,26.4645,-82.1044,1.44,5.64,1111122 
SCCF RECON,ioos:station:SCCF:56:1,2015-12-09T11:00:00Z,26.4645,-82.1044,1.38,5.34,1111122 
SCCF RECON,ioos:station:SCCF:56:1,2015-12-09T12:00:00Z,26.4645,-82.1044,1.38,5.07,1111122 
SCCF RECON,ioos:station:SCCF:56:1,2015-12-09T13:00:00Z,26.4645,-82.1044,1.54,5.46,1111122 
SCCF RECON,ioos:station:SCCF:56:1,2015-12-09T14:00:00Z,26.4645,-82.1044,1.72,5.29,1111122 
SCCF RECON,ioos:station:SCCF:56:1,2015-12-09T15:00:00Z,26.4645,-82.1044,1.82,6.49,1111122 
SCCF RECON,ioos:station:SCCF:56:1,2015-12-09T16:00:00Z,26.4645,-82.1044,1.91,8.29,1111122 
SCCF RECON,ioos:station:SCCF:56:1,2015-12-09T17:00:00Z,26.4645,-82.1044,1.976,8.5,1111122 
SCCF RECON,ioos:station:SCCF:56:1,2015-12-09T18:00:00Z,26.4645,-82.1044,2.009,9.24,1111122 
SCCF RECON,ioos:station:SCCF:56:1,2015-12-09T19:00:00Z,26.4645,-82.1044,1.961,8.88,1111122 
SCCF RECON,ioos:station:SCCF:56:1,2015-12-09T20:00:00Z,26.4645,-82.1044,1.86,8.89,1111122 
SCCF RECON,ioos:station:SCCF:56:1,2015-12-09T21:00:00Z,26.4645,-82.1044,1.78,8.14,1111122 
SCCF RECON,ioos:station:SCCF:56:1,2015-12-09T22:00:00Z,26.4645,-82.1044,1.76,8.84,1111122 
SCCF RECON,ioos:station:SCCF:56:1,2015-12-09T23:00:00Z,26.4645,-82.1044,1.78,8.62,1111122 
SCCF RECON,ioos:station:SCCF:56:1,2015-12-10T00:00:00Z,26.4645,-82.1044,1.86,9.5,1111122 
SCCF RECON,ioos:station:SCCF:56:1,2015-12-10T01:00:00Z,26.4645,-82.1044,1.97,9.47,1111122 
SCCF RECON,ioos:station:SCCF:56:1,2015-12-10T02:00:00Z,26.4645,-82.1044,2.06,8.77,1111122 
SCCF RECON,ioos:station:SCCF:56:1,2015-12-10T03:00:00Z,26.4645,-82.1044,2.128,8.52,1111122 
SCCF RECON,ioos:station:SCCF:56:1,2015-12-10T04:00:00Z,26.4645,-82.1044,2.132,8.32,1111122 
SCCF RECON,ioos:station:SCCF:56:1,2015-12-10T05:00:00Z,26.4645,-82.1044,2.108,8.08,1111122 
SCCF RECON,ioos:station:SCCF:56:1,2015-12-10T06:00:00Z,26.4645,-82.1044,2.04,8.15,1111122 
SCCF RECON,ioos:station:SCCF:56:1,2015-12-10T07:00:00Z,26.4645,-82.1044,1.89,7.62,1111122 
SCCF RECON,ioos:station:SCCF:56:1,2015-12-10T08:00:00Z,26.4645,-82.1044,1.722,6.88,1111122 
SCCF RECON,ioos:station:SCCF:56:1,2015-12-10T09:00:00Z,26.4645,-82.1044,1.586,6.07,1111122 
SCCF RECON,ioos:station:SCCF:56:1,2015-12-10T10:00:00Z,26.4645,-82.1044,1.46,5.78,1111122 
SCCF RECON,ioos:station:SCCF:56:1,2015-12-10T11:00:00Z,26.4645,-82.1044,1.361,5.43,1111122 
SCCF RECON,ioos:station:SCCF:56:1,2015-12-10T12:00:00Z,26.4645,-82.1044,1.304,5.11,1111122 
SCCF RECON,ioos:station:SCCF:56:1,2015-12-10T13:00:00Z,26.4645,-82.1044,1.36,4.94,1111122 
SCCF RECON,ioos:station:SCCF:56:1,2015-12-10T14:00:00Z,26.4645,-82.1044,1.54,6.02,1111122 
SCCF RECON,ioos:station:SCCF:56:1,2015-12-10T15:00:00Z,26.4645,-82.1044,1.7,7.19,1111122 
SCCF RECON,ioos:station:SCCF:56:1,2015-12-10T16:00:00Z,26.4645,-82.1044,1.82,8.29,1111122 
SCCF RECON,ioos:station:SCCF:56:1,2015-12-10T17:00:00Z,26.4645,-82.1044,1.914,9.21,1111122 
SCCF RECON,ioos:station:SCCF:56:1,2015-12-10T18:00:00Z,26.4645,-82.1044,1.97,8.8,1111122 
SCCF RECON,ioos:station:SCCF:56:1,2015-12-10T19:00:00Z,26.4645,-82.1044,1.97,8.77,1111122 
SCCF RECON,ioos:station:SCCF:56:1,2015-12-10T20:00:00Z,26.4645,-82.1044,1.89,8.91,1111122 
SCCF RECON,ioos:station:SCCF:56:1,2015-12-10T21:00:00Z,26.4645,-82.1044,1.8,8.67,1111122 
SCCF RECON,ioos:station:SCCF:56:1,2015-12-10T22:00:00Z,26.4645,-82.1044,1.77,8.93,1111122 
SCCF RECON,ioos:station:SCCF:56:1,2015-12-10T23:00:00Z,26.4645,-82.1044,1.77,8.68,1111122 
SCCF RECON,ioos:station:SCCF:56:1,2015-12-11T00:00:00Z,26.4645,-82.1044,1.816,9.05,1111122 
SCCF RECON,ioos:station:SCCF:56:1,2015-12-11T01:00:00Z,26.4645,-82.1044,1.9,9.06,1111122 
SCCF RECON,ioos:station:SCCF:56:1,2015-12-11T02:00:00Z,26.4645,-82.1044,2.01,8.42,1111122 
SCCF RECON,ioos:station:SCCF:56:1,2015-12-11T03:00:00Z,26.4645,-82.1044,2.11,8.22,1111122 
SCCF RECON,ioos:station:SCCF:56:1,2015-12-11T04:00:00Z,26.4645,-82.1044,2.192,7.97,1111122 
SCCF RECON,ioos:station:SCCF:56:1,2015-12-11T05:00:00Z,26.4645,-82.1044,2.23,7.74,1111122 
SCCF RECON,ioos:station:SCCF:56:1,2015-12-11T06:00:00Z,26.4645,-82.1044,2.16,7.67,1111122 
SCCF RECON,ioos:station:SCCF:56:1,2015-12-11T07:00:00Z,26.4645,-82.1044,2.015,7.52,1111122 
SCCF RECON,ioos:station:SCCF:56:1,2015-12-11T08:00:00Z,26.4645,-82.1044,1.85,6.99,1111122 
SCCF RECON,ioos:station:SCCF:56:1,2015-12-11T09:00:00Z,26.4645,-82.1044,1.71,6.38,1111122 
SCCF RECON,ioos:station:SCCF:56:1,2015-12-11T10:00:00Z,26.4645,-82.1044,1.585,5.91,1111122 
SCCF RECON,ioos:station:SCCF:56:1,2015-12-11T11:00:00Z,26.4645,-82.1044,1.46,5.48,1111122 
SCCF RECON,ioos:station:SCCF:56:1,2015-12-11T12:00:00Z,26.4645,-82.1044,1.359,5.03,1111122 
SCCF RECON,ioos:station:SCCF:56:1,2015-12-11T13:00:00Z,26.4645,-82.1044,1.31,4.67,1111122 
SCCF RECON,ioos:station:SCCF:56:1,2015-12-11T14:00:00Z,26.4645,-82.1044,1.433,5.01,1111122 
SCCF RECON,ioos:station:SCCF:56:1,2015-12-11T15:00:00Z,26.4645,-82.1044,1.64,6.99,1111122 
SCCF RECON,ioos:station:SCCF:56:1,2015-12-11T16:00:00Z,26.4645,-82.1044,1.78,8.39,1111122 
SCCF RECON,ioos:station:SCCF:56:1,2015-12-11T17:00:00Z,26.4645,-82.1044,1.9,9.18,1111122 
SCCF RECON,ioos:station:SCCF:56:1,2015-12-11T18:00:00Z,26.4645,-82.1044,1.97,9.0,1111122 
SCCF RECON,ioos:station:SCCF:56:1,2015-12-11T19:00:00Z,26.4645,-82.1044,1.99,8.78,1111122 
SCCF RECON,ioos:station:SCCF:56:1,2015-12-11T20:00:00Z,26.4645,-82.1044,1.93,8.64,1111122 
SCCF RECON,ioos:station:SCCF:56:1,2015-12-11T21:00:00Z,26.4645,-82.1044,1.83,8.87,1111122 